This demonstration page uses our WeatherBlox Daily Observations layout. Learn more.

Left ArrowRight Arrow

47.50024, -111.30081

Hourly Observations for April 22, 2020

Temp ( °F °C ) Dew Point ( °F °C ) Humidity (%) Winds ( mph kmh ) Pressure ( in mb ) Visibility ( mi km ) Precip ( " mm )
12:53 am 00:53 Clear 43 6.1 27 -2.8 53 53 WSW 14 22 29.92 1013 10 16 0.00 0.00
1:53 am 01:53 Clear 44 6.7 27 -2.8 51 51 SW 12 19 29.93 1013 10 16 0.00 0.00
2:53 am 02:53 Clear 44 6.7 27 -2.8 51 51 WSW 15 24 29.93 1014 10 16 0.00 0.00
3:53 am 03:53 Clear 42 5.6 27 -2.8 55 55 SW 14 22 29.96 1014 10 16 0.00 0.00
4:53 am 04:53 Clear 43 6.1 26 -3.3 51 51 WSW 15 24 29.96 1014 10 16 0.00 0.00
5:53 am 05:53 Clear 40 4.4 26 -3.3 58 58 SW 13 20 29.97 1015 10 16 0.00 0.00
6:53 am 06:53 Sunny 40 4.4 26 -3.3 58 58 SW 12 19 29.98 1015 10 16 0.00 0.00
7:53 am 07:53 Sunny 46 7.8 28 -2.2 50 50 SW 13 20 29.99 1016 10 16 0.00 0.00
8:53 am 08:53 Sunny 51 10.6 28 -2.2 41 41 SW 15 24 30.00 1016 10 16 0.00 0.00
9:53 am 09:53 Sunny 56 13.3 26 -3.3 32 32 WSW 21 33 29.96 1015 10 16 0.00 0.00
10:53 am 10:53 Sunny 58 14.4 26 -3.3 29 29 WSW 22 35 29.95 1014 10 16 0.00 0.00
11:53 am 11:53 Partly Cloudy 61 16.1 25 -3.9 25 25 W 18 30 29.91 1013 10 16 0.00 0.00
12:53 pm 12:53 Partly Cloudy 61 16.1 24 -4.4 24 24 WSW 22 35 29.91 1013 10 16 0.00 0.00
1:53 pm 13:53 Mostly Sunny 62 16.7 23 -5 22 22 WSW 22 35 29.89 1012 10 16 0.00 0.00
2:53 pm 14:53 Sunny 63 17.2 23 -5 22 22 W 24 39 29.87 1011 10 16 0.00 0.00
3:53 pm 15:53 Sunny 60 15.6 24 -4.4 25 25 W 21 33 29.88 1012 10 16 0.00 0.00
4:53 pm 16:53 Sunny 61 16.1 26 -3.3 26 26 SW 24 39 29.85 1011 10 16 0.00 0.00
5:53 pm 17:53 Partly Cloudy 58 14.4 26 -3.3 29 29 WSW 21 33 29.85 1011 10 16 0.00 0.00
6:53 pm 18:53 Mostly Sunny 56 13.3 26 -3.3 32 32 WSW 14 22 29.85 1011 10 16 0.00 0.00
7:53 pm 19:53 Cloudy 53 11.7 28 -2.2 38 38 W 7 11 29.85 1011 10 16 0.00 0.00
8:53 pm 20:53 Cloudy 53 11.7 28 -2.2 38 38 WSW 10 17 29.84 1011 10 16 0.00 0.00
9:53 pm 21:53 Cloudy 53 11.7 29 -1.7 40 40 W 10 17 29.83 1010 10 16 0.00 0.00
10:53 pm 22:53 Cloudy 51 10.6 31 -0.6 46 46 WNW 12 19 29.83 1010 10 16 0.00 0.00
11:53 pm 23:53 Cloudy 48 8.9 32 0 54 54 WNW 8 13 29.82 1010 10 16 0.00 0.00

Powered by AerisWeather